Regional Weather Roundup
Issued by NWS State College, PA

Home | Current Version | Previous Version | Graphics & Text | Print | Product List | Glossary On
Versions: 1 2 3 4 5 6 7 8 9 10 11 12 13 14 15 16 17 18 19 20 21 22 23 24 25 26 27 28 29 30 31 32 33 34 35 36 37 38 39 40 41 42 43 44 45 46 47 48 49 50
000
ASUS41 KCTP 271610
RWRCTP

REGIONAL WEATHER ROUNDUP
NATIONAL WEATHER SERVICE STATE COLLEGE PA
1200 PM EDT TUE JUN 27 2017

Note: "fair" indicates few or no clouds below 12,000 feet with no
significant weather and/or obstructions to visibility.

* = STATION THAT DOES NOT REPORT PRECIPITATION /E.G. RAIN...SNOW...ETC/
    THUNDER OR FOG.

PAZ002>004-007>009-013>016-020>023-029>032-271700-
WESTERN PENNSYLVANIA

CITY           SKY/WX    TMP DP  RH WIND       PRES   REMARKS
ERIE           PTSUNNY   62  50  64 W15G25    30.03S
MEADVILLE      NOT AVBL
FRANKLIN*      CLOUDY    59  46  63 W8        30.06R
NEW CASTLE     CLOUDY    62  48  60 NW10G17   30.08R
BEAVER COUNTY  CLOUDY    63  46  55 W13       30.08R
BUTLER*        MOSUNNY   64  48  55 W8        30.06F
PITTSBURGH INT PTSUNNY   64  46  52 W10G23    30.07S
PITTSBURGH     PTSUNNY   65  44  46 W17G25    30.07R
INDIANA*       PTSUNNY   64  48  55 W13G21    30.08R
LATROBE        PTSUNNY   64  50  59 W12G23    30.08S
WASHINGTON CO* PTSUNNY   64  46  52 NW12      30.11S
$$

PAZ004>006-010>012-017>019-024>028-033>037-041-042-045-046-049>053-271700-
CENTRAL PENNSYLVANIA

CITY           SKY/WX    TMP DP  RH WIND       PRES   REMARKS
BRADFORD       PTSUNNY   60  47  61 W13G20    30.01S
DUBOIS         PTSUNNY   62  48  60 W14G22    30.04R
CLEARFIELD     PTSUNNY   66  47  50 W15G23    30.03S
JOHNSTOWN      PTSUNNY   62  48  60 W14G24    30.06S
ALTOONA        PTSUNNY   67  48  50 W12       30.05R
STATE COLLEGE  CLOUDY    68  48  49 W13G22    30.02S
WILLIAMSPORT   MOSUNNY   73  51  46 W14       29.97F
SELINSGROVE    PTSUNNY   71  55  56 VRB7      30.00F
FT INDIANTOWN  MOSUNNY   70  53  54 SW12G20   30.00F
CAPITAL CITY   MOSUNNY   74  53  48 VRB5      30.00F
HARRISBURG     MOSUNNY   73  52  47 W8G17     30.00F
YORK           PTSUNNY   72  51  47 W9        30.01F
$$

PAZ038>040-043-044-047-048-054-055-060>062-067>071-271700-
EASTERN PENNSYLVANIA

CITY           SKY/WX    TMP DP  RH WIND       PRES   REMARKS
SCRANTON       MOSUNNY   69  53  56 SW7G16    29.99F
MOUNT POCONO   PTSUNNY   63  48  58 SW12      30.02S
ALLENTOWN      LGT RAIN  74  55  51 VRB3      30.00F
QUAKERTOWN*    MOSUNNY   73  55  53 SW5       30.01F
READING        MOSUNNY   73  55  53 W8G17     29.99F
LANCASTER      MOSUNNY   74  55  51 W12G18    30.01S
COATESVILLE    PTSUNNY   70  55  60 VRB5      30.03S
POTTSTOWN      PTSUNNY   71  57  61 E3        30.01F
BLUE BELL      MOSUNNY   72  55  56 W5        30.01F
DOYLESTOWN     SUNNY     73  58  59 VRB3      29.99F
WILLOW GROVE   NOT AVBL
NORTH PHILA    MOSUNNY   76  59  55 VRB5      30.01F
PHILADELPHIA   MOSUNNY   73  58  59 S7        30.00F
$$




USA.gov is the U.S. government's official web portal to all federal, state and local government web resources and services.